Theta_e
304 301 299 300 301 301 299 297 296 298 300 300 300 300 301 304 304 303 303 303 303 304 308 310 311 314 315 317 323 324 325 326 326 326 325 324 324 325 325 326 326 325 325 324
301 299 301 301 300 299 298 297 296 298 299 300 299 298 301 302 301 302 301 302 302 303 305 308 310 314 314 316 321 323 324 326 326 327 326 326 325 326 326 327 326 326 325 325
299 300 300 299 298 297 298 297 296 296 298 300 300 297 299 301 302 302 302 302 302 302 303 305 307 310 315 315 318 320 322 324 326 326 326 326 326 326 324 325 325 326 326 325
300 301 299 298 297 298 296 298 297 296 295 293 300 293 297 299 298 299 299 300 300 301 303 304 305 307 310 315 318 318 319 321 323 325 324 323 322 321 324 324 325 325 326 325
297 298 297 297 298 299 297 299 298 298 296 296 295 292 296 299 296 296 297 298 299 301 302 302 304 305 307 310 312 316 319 319 320 321 321 321 321 322 323 323 323 324 325 324
300 302 301 300 299 299 300 298 298 297 296 290 295 293 293 296 297 295 296 297 298 299 300 302 303 305 305 307 308 310 309 310 314 318 319 320 320 320 320 321 321 322 323 324
298 298 300 300 298 300 298 296 292 290 289 290 295 292 294 297 298 297 295 296 297 298 298 299 300 301 303 304 305 306 307 306 308 308 309 312 315 317 317 317 318 319 320 321
294 292 297 299 298 296 297 296 291 285 287 290 293 290 294 298 297 297 296 296 297 297 298 298 299 300 301 302 303 304 304 304 306 307 307 309 310 310 309 310 311 312 314 316
294 293 298 298 299 298 296 293 297 292 293 289 292 293 296 297 295 295 295 296 296 297 297 298 299 300 300 301 302 302 302 303 304 305 306 307 306 307 306 308 309 310 310 310
297 292 296 297 298 299 296 298 291 293 285 285 290 291 293 292 293 294 294 295 295 297 297 298 298 299 300 301 302 302 302 302 302 304 304 304 304 305 305 306 305 306 308 308
298 295 294 297 294 294 295 293 294 293 292 285 285 289 296 297 296 294 295 295 295 296 296 297 298 299 299 300 300 300 300 300 301 302 303 303 303 304 304 304 304 305 306 306
297 296 291 293 296 297 296 294 294 288 287 290 289 288 296 300 298 297 295 295 295 296 297 297 298 298 298 298 299 299 299 299 300 300 301 302 302 303 303 303 304 304 303 305
296 293 288 289 293 296 293 292 293 293 292 287 285 287 295 298 298 297 295 294 295 295 296 297 297 297 297 297 297 297 298 298 298 299 299 300 300 301 301 302 302 303 303 303
295 293 290 287 288 291 290 290 291 290 286 287 287 289 291 293 294 295 294 294 294 295 295 296 296 296 296 296 295 296 296 297 297 297 298 298 298 298 299 300 301 301 302 302
293 288 289 290 290 290 288 288 288 287 288 284 287 287 290 293 294 294 294 293 293 293 294 294 294 294 294 294 294 295 295 295 296 295 296 296 296 296 297 297 296 298 299 300
289 286 285 284 286 285 283 285 286 285 285 285 286 285 291 293 293 292 293 292 292 292 293 294 294 293 293 293 293 293 293 294 295 294 294 295 295 295 295 295 295 296 296 296
285 285 283 280 283 283 281 284 284 285 285 285 283 287 289 289 290 292 292 292 292 292 293 293 293 293 292 292 293 292 293 294 294 293 294 294 294 294 294 294 294 294 294 295
284 283 284 281 283 276 283 288 288 286 286 287 287 288 289 289 291 292 293 293 293 292 293 293 292 292 292 293 292 293 293 293 292 293 292 292 291 291 292 293 293 293 294 294
288 286 283 280 281 284 284 285 285 284 285 288 287 288 290 291 292 291 294 294 293 292 292 292 292 292 292 292 292 291 291 291 291 290 289 290 290 290 291 291 292 292 292 293
287 288 284 282 277 275 284 287 289 289 280 289 288 288 288 289 284 288 293 294 293 293 292 291 291 291 291 291 291 289 289 289 288 288 288 289 290 289 289 290 290 291 292 292
283 284 281 282 280 282 287 288 290 278 282 289 289 289 289 286 288 291 293 293 292 291 290 290 291 290 290 291 290 289 289 287 288 288 288 288 288 288 288 288 290 290 290 290
281 280 280 281 278 276 290 288 282 287 289 289 289 289 288 289 290 292 292 292 290 290 289 290 289 289 290 290 289 288 287 288 288 288 287 287 287 287 287 288 288 289 288 288
278 283 282 282 282 289 291 290 291 290 288 289 289 291 291 290 291 292 292 291 290 289 289 289 288 288 289 289 288 287 287 288 287 288 287 287 287 287 287 286 286 287 287 287
284 287 282 281 284 285 287 289 290 290 290 291 291 291 291 291 291 291 291 291 290 289 288 289 288 288 288 288 288 288 287 287 287 287 286 287 286 286 287 286 286 285 285 285
285 285 282 282 285 286 287 289 289 290 291 291 291 291 291 291 291 291 290 289 289 288 288 288 287 287 287 288 287 287 286 286 285 286 286 286 286 286 286 287 286 285 286 286
286 284 281 280 286 286 286 289 290 289 289 290 290 290 292 291 290 290 289 288 288 287 288 287 287 287 287 287 286 286 286 286 284 284 285 285 285 285 285 284 286 286 285 285
Wind_Speed
2 7 3 6 4 6 2 2 3 4 3 3 6 7 7 7 10 11 12 13 14 14 14 15 13 11 7 7 9 10 11 10 8 7 7 6 6 5 5 6 7 7 6 6
6 4 6 3 2 3 3 4 3 4 1 6 6 6 6 7 10 11 12 14 15 15 16 16 16 14 10 4 6 7 8 8 8 6 5 5 4 5 5 4 6 7 7 7
7 8 1 3 3 5 3 6 0 5 5 6 8 8 8 7 9 10 12 12 14 16 17 17 17 17 14 11 5 2 4 6 6 6 4 2 1 1 2 4 5 6 8 8
3 4 2 3 4 5 6 2 2 4 6 4 12 1 9 9 9 10 11 12 14 15 16 16 17 17 16 14 11 8 5 2 2 4 4 6 5 5 3 1 3 4 7 8
6 2 2 5 5 4 7 1 2 4 8 9 11 7 11 10 8 8 10 12 13 14 15 16 17 17 17 16 14 13 11 9 6 4 3 4 4 4 2 1 4 5 4 6
3 1 2 5 2 2 3 4 5 5 7 7 11 10 10 6 9 8 9 10 12 13 14 15 16 16 16 15 15 14 15 14 12 10 8 6 4 4 4 4 4 4 4 4
5 4 3 1 5 3 5 6 4 7 6 1 3 6 9 8 8 9 9 9 10 12 13 14 15 15 16 16 15 14 15 15 14 13 13 12 9 7 7 7 5 6 5 4
5 7 2 2 3 6 4 6 7 6 6 4 4 5 7 9 8 9 9 9 9 11 11 13 14 14 14 15 15 15 15 15 14 13 12 10 10 6 7 8 6 6 6 7
5 5 5 4 2 4 5 5 4 7 10 7 5 6 5 9 9 8 8 8 8 9 10 11 12 12 13 13 15 15 14 14 14 13 11 11 10 9 8 9 7 6 7 7
5 5 1 4 3 2 6 4 5 6 5 8 5 4 4 15 13 10 8 7 7 8 9 9 10 11 11 12 12 14 14 14 13 13 12 10 11 11 10 9 10 10 8 9
5 3 7 3 1 6 2 4 4 4 5 6 9 5 9 10 12 11 9 7 6 6 7 8 8 9 10 11 12 12 13 14 13 12 11 11 11 11 11 10 10 10 10 10
5 6 6 4 5 2 4 5 6 4 1 4 4 2 4 4 10 9 9 6 5 5 5 6 7 8 9 10 11 12 12 12 12 12 12 11 11 11 11 11 11 11 11 10
6 4 5 8 5 3 2 3 2 4 3 8 8 1 2 2 7 7 8 5 4 4 5 6 7 8 9 10 10 11 11 12 12 12 12 11 11 12 12 12 11 11 11 11
4 5 8 8 4 3 3 3 2 6 5 9 9 7 7 4 7 7 6 3 2 4 5 6 7 8 9 10 11 11 11 12 12 12 11 10 11 12 12 12 12 12 12 11
4 6 4 8 5 7 9 9 9 10 11 8 9 4 5 2 6 7 5 3 3 2 4 6 7 9 10 11 11 12 11 12 12 12 11 10 11 11 11 11 12 13 12 12
2 2 4 9 2 6 11 10 8 9 10 10 10 10 5 2 2 4 7 2 2 1 4 6 7 9 10 11 12 12 12 12 12 12 12 11 11 11 11 11 12 12 12 12
3 3 3 2 0 7 10 8 6 0 0 4 6 5 2 3 6 7 7 6 4 4 4 6 8 9 10 11 11 12 12 12 11 11 11 12 12 12 11 11 11 11 11 12
2 3 2 4 4 6 6 3 2 1 1 1 1 1 1 1 3 5 5 6 4 2 5 7 8 8 9 9 10 11 11 11 11 11 12 13 13 13 13 13 11 11 10 11
2 2 3 4 4 4 9 5 4 5 5 4 3 3 5 6 8 11 13 3 0 2 5 6 7 8 9 9 10 11 11 11 11 12 12 13 13 13 12 12 12 11 10 9
4 5 5 3 4 5 8 7 2 2 11 10 2 4 6 8 9 8 10 6 3 1 4 6 7 8 8 8 9 10 10 10 11 13 13 13 13 13 13 13 12 12 11 10
5 5 8 8 6 5 8 5 4 4 5 5 6 11 10 10 11 15 2 4 1 2 4 5 7 7 7 7 8 9 10 10 11 11 10 11 10 10 10 9 8 7 7 7
4 4 5 5 5 7 10 7 5 9 7 10 12 13 14 15 15 13 3 3 2 3 4 4 5 5 5 5 7 8 9 9 10 10 10 9 9 8 8 8 8 8 8 8
5 7 4 4 2 4 5 7 7 8 12 12 10 9 10 11 10 5 4 5 4 4 5 4 5 5 4 5 6 8 8 9 9 8 9 7 8 7 6 7 7 6 7 6
7 6 5 5 6 11 10 12 9 9 8 9 10 12 11 10 9 6 6 6 5 5 5 4 5 6 5 5 5 6 8 8 9 7 8 6 5 7 5 4 5 5 6 6
7 3 8 12 14 13 14 10 6 6 9 11 12 11 10 10 8 8 7 6 5 5 4 4 5 5 5 6 6 6 7 8 8 8 6 5 4 4 4 3 4 5 6 7
10 9 10 10 6 6 10 8 7 10 12 12 12 12 11 8 9 5 5 5 6 6 5 5 5 5 6 5 6 6 6 6 7 7 5 4 5 4 3 4 1 7 5 5
Wind_Direction
170 252 222 46 356 352 16 276 248 93 123 106 115 108 79 61 51 44 40 34 28 24 23 19 13 3 333 224 198 200 190 192 189 197 201 209 215 216 225 224 235 228 230 221
215 247 67 45 3 316 299 273 161 84 154 245 157 117 88 70 63 52 43 39 32 26 27 26 23 21 20 4 189 204 194 190 191 199 203 209 221 221 220 222 231 233 229 233
309 66 78 283 218 245 220 287 76 309 157 243 182 187 166 106 81 68 56 48 43 38 33 31 33 30 28 36 28 189 189 191 187 205 200 208 277 352 253 239 238 236 233 233
2 88 273 229 249 282 269 59 275 191 220 270 205 92 167 140 98 68 58 49 44 39 43 42 40 40 37 35 44 46 53 121 190 179 221 214 234 239 217 279 203 222 225 229
80 149 239 253 25 320 50 29 261 257 261 285 206 255 113 157 119 79 61 51 50 47 41 45 46 47 47 47 45 47 52 56 45 31 340 323 272 296 299 284 270 266 255 246
59 95 297 13 70 2 121 220 232 255 256 245 229 215 152 176 117 111 80 61 52 49 47 45 48 46 50 49 54 52 60 58 48 46 40 24 359 342 333 325 306 275 270 270
157 138 123 286 238 165 226 247 235 204 197 334 79 220 64 100 100 103 92 74 60 52 47 44 42 43 43 43 46 50 51 51 54 52 50 44 45 41 29 2 351 334 314 304
282 181 183 28 329 340 230 308 302 304 328 49 154 243 110 116 117 114 102 89 75 59 53 47 42 41 42 40 39 43 44 45 43 45 46 43 40 37 37 30 21 14 7 355
311 148 120 58 312 296 125 233 9 293 257 267 142 112 142 156 150 141 114 100 80 65 57 50 46 42 39 39 37 35 37 38 33 34 33 34 34 37 31 28 22 14 15 356
33 272 138 108 230 159 283 6 242 196 269 270 180 209 108 180 173 157 151 116 94 74 62 54 48 45 41 40 34 33 29 30 29 24 26 23 22 20 24 24 19 14 7 4
329 244 136 194 332 17 209 217 224 300 274 294 299 83 354 172 173 173 145 121 99 75 63 54 47 45 41 38 32 30 26 23 17 15 14 19 15 11 11 14 9 6 2 2
27 313 270 37 52 309 286 317 287 268 289 250 293 328 355 101 157 169 143 128 105 82 64 55 48 41 38 32 26 20 17 14 9 4 3 9 9 6 5 4 0 359 357 354
5 205 269 166 173 150 29 29 360 301 268 265 276 38 45 145 138 151 149 146 111 79 55 47 36 36 29 23 17 12 8 3 360 354 353 357 358 358 354 352 351 351 349 347
285 286 277 302 16 345 214 193 322 313 278 290 283 5 132 156 166 165 145 169 116 76 55 41 26 18 15 11 7 2 358 357 352 345 346 347 349 345 343 341 341 339 338 337
316 269 307 282 278 268 274 272 270 254 270 269 296 326 344 195 197 188 163 175 162 92 50 29 12 4 2 3 1 355 354 348 345 339 341 346 343 339 338 339 336 332 333 330
21 278 300 277 232 268 274 265 266 268 274 273 278 282 58 65 164 175 200 176 242 11 18 9 4 356 356 355 351 344 345 342 338 337 334 339 336 337 336 332 330 331 330 324
278 280 252 249 312 301 265 244 222 353 246 288 261 57 152 195 222 223 240 203 262 320 359 356 355 351 348 344 340 338 335 332 335 332 334 335 334 330 329 330 331 330 326 327
282 256 270 290 297 241 78 75 75 247 186 242 187 125 25 317 280 287 254 278 287 326 341 350 348 343 339 334 337 333 330 332 335 335 344 339 332 326 325 326 326 323 329 324
252 265 251 272 255 302 166 187 196 228 232 203 223 223 271 277 276 269 236 206 293 353 349 343 340 335 329 336 338 335 329 340 340 347 339 337 332 330 329 329 331 329 321 321
214 262 270 196 269 277 88 113 78 20 266 154 211 280 306 309 282 298 79 156 178 353 350 335 333 325 330 338 343 330 338 341 349 347 336 337 340 335 333 344 337 335 331 341
201 224 236 249 259 286 126 135 169 243 56 146 291 297 290 289 298 300 141 199 142 346 327 337 324 323 333 344 338 334 340 350 349 332 335 345 338 332 337 342 338 349 350 360
245 240 210 233 241 253 141 158 214 23 323 297 299 302 296 293 290 281 244 277 301 311 315 313 312 323 329 343 334 334 339 347 333 337 352 342 359 351 353 359 357 12 17 18
252 231 311 246 31 57 192 261 286 302 293 293 297 305 300 294 292 325 271 269 287 297 299 302 305 308 314 340 346 325 340 340 330 335 334 351 13 350 22 11 13 19 21 21
227 214 249 295 251 262 278 279 287 284 268 284 289 295 290 284 297 277 267 272 280 284 286 293 287 286 303 329 330 323 333 334 324 329 323 343 24 337 17 32 18 34 24 14
281 127 254 262 268 271 268 271 291 264 268 283 281 283 277 275 280 286 287 288 283 278 270 263 279 292 301 310 317 321 331 331 321 321 317 352 342 340 359 27 39 19 46 23
240 234 240 260 292 295 286 297 309 292 283 285 286 285 269 251 284 287 277 289 280 262 253 253 271 277 288 294 306 310 321 319 316 315 323 2 324 348 5 357 41 118 92 45